Regional Weather Roundup
Issued by NWS Charleston, SC

Current Version | Previous Version | Graphics & Text | Print | Product List | Glossary On
Versions: 1 2 3 4 5 6 7 8 9 10 11 12 13 14 15 16 17 18 19 20 21 22 23 24 25 26 27 28 29 30 31 32 33 34 35 36 37 38 39 40 41 42 43 44 45 46 47 48 49 50
000
ASUS42 KCHS 032312
RWRCHS

REGIONAL WEATHER ROUNDUP
NATIONAL WEATHER SERVICE CHARLESTON SC
700 PM EDT FRI JUL 03 2015

NOTE: "FAIR" INDICATES FEW OR NO CLOUDS BELOW 12,000 FEET WITH NO
SIGNIFICANT WEATHER AND/OR OBSTRUCTIONS TO VISIBILITY.

NOT ALL STATIONS ARE QUALITY CONTROLLED BY THE NATIONAL
WEATHER SERVICE. USE DATA WITH CAUTION...ESPECIALLY
DEWPOINT OBSERVATIONS.

SCZ027-030-031-034>040-042>050-040000-
...SOUTHEAST SOUTH CAROLINA...

CITY           SKY/WX    TMP DP  RH WIND       PRES   REMARKS
N CHARLESTON   CLOUDY    80  72  76 S6        29.99S
WATERFRONT PAR   N/A     78  72  81 SW6       29.97S
MOUNT PLEASANT LGT RAIN  75  72  88 SW3       30.00R
JOHNS ISLAND   FAIR      81  75  83 S9        30.00S
PINOPOLIS      NOT AVBL
MONCKS CORNER  FAIR      77  70  78 SW6       29.98S
SUMMERVILLE    FAIR      77  72  83 S3        30.00S
BEAUFORT MCAS  SUNNY     85  71  63 SW6       30.00S HX  90
BEAUFORT ARPT  FAIR      86  72  62 NW5       29.99S HX  92
HILTON HEAD IS SUNNY     86  75  70 CALM      30.01F HX  95
WALTERBORO     MOCLDY    81  68  65 W6        29.99F
ALLENDALE      FAIR      82  68  61 CALM      29.98F

...SOUTHERN MIDLANDS AND PEE DEE...

CITY           SKY/WX    TMP DP  RH WIND       PRES   REMARKS
GEORGETOWN     NOT AVBL
KINGSTREE      NOT AVBL
ORANGEBURG     CLOUDY    82  67  60 W12       29.97F
BARNWELL       FAIR      82  70  65 W8        29.98F
AIKEN          NOT AVBL
MANNING        FAIR      75  70  83 SW7       29.97S
COLUMBIA       PTSUNNY   82  67  60 SW16      29.93F
SUMTER         PTSUNNY   85  68  57 SW10      29.91F
FLORENCE       PTSUNNY   83  70  64 SW10      29.92S
MYRTLE BEACH   MOSUNNY   73  70  88 SW8       29.97S
N MYRTLE BEACH CLOUDY    75  71  87 SW13      29.94S

$$

GAZ063-065-086>088-099>101-113>116-118-119-134>141-150-040000-
...SOUTHEAST GEORGIA...

CITY           SKY/WX    TMP DP  RH WIND       PRES   REMARKS
SAVANNAH ARPT  MOSUNNY   90  70  51 CALM      29.99F HX  95
HUNTER AAF     SUNNY     92  71  51 W5        29.97S HX  98
FORT STEWART   SUNNY     91  65  42 SW12      29.98S HX  93
STATESBORO     NOT AVBL
SYLVANIA       PTCLDY    87  73  62 W3        30.00F HX  94
CLAXTON        FAIR      90  72  55 W7        29.99F HX  96

...CSRA...CENTRAL AND FAR SOUTHEAST GEORGIA...

CITY           SKY/WX    TMP DP  RH WIND       PRES   REMARKS
THOMSON        PTSUNNY   84  75  75 SW8       30.01F HX  91
AUGUSTA-BUSH   PTSUNNY   82  70  66 SW6       29.96F
AUGUSTA-DANIEL PTSUNNY   82  70  66 SW7       29.98F
SWAINSBORO     FAIR      88  73  62 CALM      30.00F HX  96
VIDALIA        SUNNY     90  70  51 SW12      30.00S HX  95
EASTMAN        FAIR      90  71  52 SW8       30.02S HX  96
HAZLEHURST     FAIR      91  71  52 SW6       30.00F HX  96
ALMA           MOSUNNY   90  71  53 W6        30.01S HX  96
WAYCROSS       MOSUNNY   94  73  50 W7        30.01F HX 103
JESUP          FAIR      93  70  46 W6        30.01S HX  99
BAXLEY         FAIR      91  70  49 W5        30.01S HX  97
BRUNSWICK      MOSUNNY   91  70  49 W6        30.01F HX  97
SAINT SIMONS   SUNNY     83  75  77 S13G21    30.01F HX  90

$$

SCZ027-028-034-036>038-045-046-048>050-GAZ119-141-040000-
...LAKE AND SUPPLEMENTAL COASTAL OBSERVATIONS...

STATION/POSITION TIME  TEMP    WIND        PRES    WAVE   SWELL
                       AIR SEA DIR/SP/G            HT/PER HT/PER/DIR
                 (UTC) (F)     (DEG/KT/KT) (MB)    (FT/S) (FT/S/D)
UPR LAKE MARION  NOT AVBL
WINYAH BAY       NOT AVBL
LAKE MURRAY      2200   79     230/ 13/ 17 1013.2S
ACE BASIN NERRS  NOT AVBL
FORT PULASKI     2200   85 85   60/  7/  9 1016.3R
SAPELO ISLAND    2200   92     240/ 12     1016.0S

$$

ANZ835-935-AMZ111-154-330-350-352-354-370-450-454-472-040000-
...C-MAN AND BUOY OBSERVATIONS...

STATION/POSITION TIME  TEMP    WIND        PRES    WAVE   SWELL
                       AIR SEA DIR/SP/G            HT/PER HT/PER/DIR
                 (UTC) (F)     (DEG/KT/KT) (MB)    (FT/S) (FT/S/D)
BUOY 41004       2250   81 82  220/ 16/ 19 1015.3R   5/ 5   2/ 9
BUOY 41008       2250   80 80  190/ 16/ 17 1016.1F   2/ 9   2/110/ 9
FOLLY BEACH CMAN 2200   78     230/  7/ 10 1015.8F
CAPERS NEARSHORE 2208   79     240/ 14/ 19 1016.3F
FRIPP NEARSHORE  2200   84     190/ 10/ 12 1015.8


STATION/POSITION TIME  TEMP    WIND        PRES    WAVE   SWELL
                       AIR SEA DIR/SP/G            HT/PER HT/PER/DIR
                 (UTC) (F)     (DEG/KT/KT) (MB)    (FT/S) (FT/S/D)
5E ST. MARYS GA  2221      78                N/A     2/ 9
FRYING PAN BUOY  2250   78 80  240/ 21/ 25 1014.4F   6/ 6   2/150/ 9
BUOY 41025       2250   81 81  230/ 21/ 27 1013.3F   5/ 7   2/160/15
CAPE LOOKOUT NC  2200   80     210/ 17/ 22 1013.6R
BUOY 41002       2250   81 80  230/ 12/ 14 1018.8R   6/ 7   5/240/ 7
BUOY 41010       2220   83 85  160/  6/  8 1019.2R
ST AUGUSTINE FL  2300   77 76  160/ 10/ 11 1018.4R


$$



USA.gov is the U.S. government's official web portal to all federal, state and local government web resources and services.